User: anonymous   Login
Location: Vancouver
(49.2500°N, 123.1330°W)
Time: 09:59:37
(UTC-07:00)
Language:

Cosmos 1408 Rocket - Orbit

View from above orbital plane
View from above orbital plane
View from above satellite
View from above satellite

Ground track
Ground track

The orbit data is extracted from the following two-line orbital elements,

1 13553U 82092B   17083.73900508 +.00000112 +00000-0 +10474-4 0  9993
2 13553 082.5683 312.7654 0020569 327.5805 098.3166 14.84111104843420
Epoch (UTC): 24 March 2017 17:44:10
Eccentricity: 0.0020569
inclination: 82.5683°
perigee height: 602 km
apogee height: 631 km
right ascension of ascending node: 312.7654°
argument of perigee: 327.5805°
revolutions per day: 14.84111104
mean anomaly at epoch: 98.3166°
orbit number at epoch: 84342

The dashed part of the orbit path shows where the satellite is in the earth's shadow,  

DLR